map of LGK home
Great Circle Mapper logo
LGK - Airport
Location
City:  Langkawi, Kedah, Malaysia
Name:Langkawi International Airport
ICAO / IATA:WMKL / LGK

Details
Type:Airport (Aerodrome, Airfield)
Use:Public/Civil, International (customs port of entry)
Latitude:6°19'47"N (6.329728)
Longitude:99°43'43"E (99.728667)
Datum:WGS 1984
Elevation:29 ft (9 m)
Variation:0.3°W (WMM2015 magnetic declination)
Runways:1
Longest:12500 × 148 ft (3810 × 45 m), paved

Time
Time Zone:UTC+8
Local Time:

Weather
METAR:WMKL 230400Z 04005KT 8000 -RA FEW005 SCT025 OVC260 26/24 Q1010
TAF:WMKL 230500Z 2306/2406 05005KT 9999 FEW017CB SCT140 BKN260

Related Locations
Nearby:
Farthest:CIX: 12396 mi / 19950 km
Chiclayo [Captaán FAP José Abelardo Quiñones Gonzáles Intl], PE

Find:

   beyond  
but within

Other Information
Maps:
NOTAMs:
Links:
Sources:

  
flag of Malaysia
flag of Kedah
  

Sectional Chart

Flight Planning
at skyvector.com

Satellite Image

Google Maps Satellite View

 

Copyright © 2004-2014 Karl L. Swartz. All rights reserved.
The Great Circle Mapper name and logo are trademarks of the Great Circle Mapper.
All other trademarks mentioned herein belong to their respective owners.
Please see credits for attibutions and further copyright information.

  Follow gcmap on Facebook Follow gcmap on Twitter

hCard Microformat

Geo Microformat